Location: *
(47.2969°N, 10.2930°E)
Time: 18:16:03
(UTC+00:00)

Cosmos 1980 Rocket - Pass Details

Date: 09 April 2020
Orbit: 829 x 850 km, 71.0° (Epoch: 24 May)

Event Time Altitude Azimuth Distance (km) Brightness Sun altitude
Rises 19:52:54 0° 338° (NNW) 3,388 6.3 -18.2°
Reaches altitude 10° 19:55:52 10° 353° (N) 2,453 5.2 -18.7°
Maximum altitude 20:00:17 23° 45° (NE) 1,712 3.7 -19.3°
Enters shadow 20:02:17 19° 74° (ENE) 1,888 3.7 -19.5°
